Regional Weather Roundup
Issued by NWS

Home | Current Version | Previous Version | Graphics & Text | Print | Product List | Glossary On
Versions: 1 2 3 4 5 6 7 8 9 10 11 12 13 14 15 16 17 18 19 20 21 22 23 24 25 26 27 28 29 30 31 32 33 34 35 36 37 38 39 40 41 42 43 44 45 46 47 48 49 50
000
ASUS43 KLMK 250210
RWRKY
KENTUCKY REGIONAL WEATHER ROUNDUP
NATIONAL WEATHER SERVICE LOUISVILLE KY
900 PM EST SAT FEB 24 2018

NOTE "FAIR" INDICATES FEW OR NO CLOUDS BELOW 12,000 FEET
WITH NO SIGNIFICANT WEATHER AND/OR OBSTRUCTIONS TO VISIBILITY.

KYZ001>023-026-027-061>063-070>075-250300-
WESTERN AND SOUTH CENTRAL KENTUCKY

CITY           SKY/WX    TMP DP  RH WIND       PRES   REMARKS
PADUCAH        RAIN      66  60  81 S12G20    29.67F
HENDERSON      HVY RAIN  60  59  96 SW16      29.75  FOG
OWENSBORO      RAIN      59  59 100 SE13      29.71F
HOPKINSVILLE   FAIR      68  64  88 S14       29.73F
BOWLING GREEN  LGT RAIN  70  63  78 S22G35    29.80R
GLASGOW        MOCLDY    69  60  74 S13G21    29.81S
$$

KYZ024-025-028>034-038-045-046-053-250300-
NORTH CENTRAL KENTUCKY

CITY           SKY/WX    TMP DP  RH WIND       PRES   REMARKS
LOUISVILLE/SDF LGT RAIN  57  56  96 SE8       29.75F
LOUISVILLE/LOU LGT RAIN  58  58 100 SE7       29.77F
FORT KNOX      LGT RAIN  55  55 100 SE10      29.76F
$$

KYZ035>037-039>044-047>052-055>060-089>105-250300-
NORTHEAST KENTUCKY

CITY           SKY/WX    TMP DP  RH WIND       PRES   REMARKS
LEXINGTON      FAIR      63  59  87 S13       29.82F
COVINGTON      HVY RAIN  52  51  97 E9        29.80F FOG
FRANKFORT      LGT RAIN  61  57  87 S7        29.79F
$$

KYZ054-064>069-076>088-106>120-250300-
SOUTHEAST KENTUCKY

CITY           SKY/WX    TMP DP  RH WIND       PRES   REMARKS
JACKSON        CLOUDY    64  58  80 VRB5      29.89F
LONDON         LGT RAIN  66  57  72 SW6       29.91F
SOMERSET       FAIR      68  55  64 S9G17     29.90F
MIDDLESBORO    CLOUDY    65  60  86 S5        29.96S
MONTICELLO     FAIR      69  58  67 S15G26    29.88F
$$





USA.gov is the U.S. government's official web portal to all federal, state and local government web resources and services.